Regional Weather Roundup
Issued by NWS

Home | Current Version | Previous Version | Graphics & Text | Print | Product List | Glossary On
Versions: 1 2 3 4 5 6 7 8 9 10 11 12 13 14 15 16 17 18 19 20 21 22 23 24 25 26 27 28 29 30 31 32 33 34 35 36 37 38 39 40 41 42 43 44 45 46 47 48 49 50
000
ASUS43 KLOT 031302
RWRIL

ILLINOIS REGIONAL WEATHER ROUNDUP
NATIONAL WEATHER SERVICE CHICAGO/ROMEOVILLE IL
800 AM CDT SUN MAY 03 2015

NOTE: "FAIR" INDICATES FEW OR NO CLOUDS BELOW 12,000 FEET WITH NO
SIGNIFICANT WEATHER AND/OR OBSTRUCTIONS TO VISIBILITY.

* THESE STATIONS ARE NOT UNDER NWS QUALITY CONTROL. THEY ALSO MAY NOT
  REPORT WEATHER SUCH AS PRECIPITATION OR FOG.

ILZ001-002-007-009-015-016-024-031400-
NORTHWEST ILLINOIS

CITY           SKY/WX    TMP DP  RH WIND       PRES   REMARKS
MOLINE         CLOUDY    59  52  77 S6        29.93R
STERLING*      CLOUDY    63  46  55 S6        29.94F
$$

ILZ003-004-008-010-011-017-018-031400-
NORTH CENTRAL ILLINOIS

CITY           SKY/WX    TMP DP  RH WIND       PRES   REMARKS
ROCKFORD       CLOUDY    63  44  50 S12       29.96S
$$

ILZ005-006-012>014-019>023-031400-
NORTHEAST ILLINOIS

CITY           SKY/WX    TMP DP  RH WIND       PRES   REMARKS
CHICAGO-OHARE  PTSUNNY   64  45  49 S12       29.97S
CHICAGO-MIDWAY PTSUNNY   64  46  52 S7        29.98F
AURORA         PTSUNNY   62  45  53 S9        29.98S
WAUKEGAN       MOSUNNY   63  44  50 S8        29.96F
DUPAGE AIRPORT PTSUNNY   63  47  55 S9        29.97S
WHEELING       MOSUNNY   64  45  49 S10       29.98F
NORTHERLY ISL    N/A     63  43  48 S10         N/A
$$

LMZ740>746-031400-
SOUTHERN LAKE MICHIGAN

STATION/POSITION SKY/WX   TEMP    WIND        PRES    VSBY  WAVE
                          AIR SEA DIR/SP/G                  HT/PER
                          (F)     (DEG/KT/KT) (MB)    (MI)  (FT/S)
HARRISON CRIB              60     190/ 13/ 14   N/A
BURNHAM HARBOR             61     190/  9/ 10   N/A
CALUMET HARBOR             61     190/  4/  7   N/A
BURNS HARBOR               61     190/ 11/ 14 1016.6S
MICHIGAN CITY              60     160/  9/ 11   N/A
MICHIGAN CITY 6N           57 50  200/  8/ 10   N/A           1
ST. JOSEPH                 54 48  220/  6/  8   N/A           1
$$

ILZ025>027-034>036-040-047-049-050-058-095>099-031400-
WEST-CENTRAL ILLINOIS

CITY           SKY/WX    TMP DP  RH WIND       PRES   REMARKS
QUINCY         MOSUNNY   63  48  58 S12       29.97R
$$

ILZ028>032-037-038-041>044-048-051>054-059>061-031400-
CENTRAL ILLINOIS

CITY           SKY/WX    TMP DP  RH WIND       PRES   REMARKS
DECATUR        MOSUNNY   65  48  54 S10       30.03R
PEORIA         CLOUDY    64  47  53 S12       29.98S
SPRINGFIELD    PTSUNNY   66  47  50 S14       30.00R
TAYLORVILLE    NOT AVBL
$$

ILZ033-039-045-046-055>057-062-063-031400-
EAST-CENTRAL ILLINOIS

CITY           SKY/WX    TMP DP  RH WIND       PRES   REMARKS
CHAMPAIGN      MOSUNNY   67  46  47 S15       30.03S
MATTOON        MOSUNNY   64  48  56 S7        30.05R
$$

ILZ079-100>102-031400-
SOUTHWEST ILLINOIS

CITY           SKY/WX    TMP DP  RH WIND       PRES   REMARKS
BELLEVILLE     MOSUNNY   61  49  65 CALM      30.03R
CAHOKIA*       MOSUNNY   64  48  56 S5        30.03R
$$

ILZ064>066-069>071-074>076-080>082-084>086-088>090-092>094-031400-
SOUTH-CENTRAL ILLINOIS

CITY           SKY/WX    TMP DP  RH WIND       PRES   REMARKS
CARBONDALE     MOSUNNY   61  51  70 CALM      30.07R
MARION         MOSUNNY   63  50  63 SE6       30.09R
MT. VERNON     MOSUNNY  N/A N/A N/A S3        30.07S
$$

ILZ067-068-072-073-078-083-087-091-031400-
SOUTHEAST ILLINOIS

CITY           SKY/WX    TMP DP  RH WIND       PRES   REMARKS
LAWRENCEVILLE  PTSUNNY   65  50  58 S10       30.08S
FLORA*         PTSUNNY   60  51  72 S6        30.07S
$$

ABBREVIATIONS USED IN REMARKS
   TC - TEMPERATURE IN CELSIUS
  WCI - WIND CHILL INDEX
   HX - HEAT INDEX
  VSB - VISIBILITY
$$



USA.gov is the U.S. government's official web portal to all federal, state and local government web resources and services.